Location: Antichan
(42.9728°N, 0.6667°E)
Time: 14:03:05
(UTC+00:00)

Cosmos 2333 - Pass Details

Date: 15 August 2020
Orbit: 830 x 866 km, 70.9° (Epoch: 24 September)

Event Time Altitude Azimuth Distance (km) Brightness Sun altitude
Rises 22:03:30 0° 337° (NNW) 3,458 8.6 -27.2°
Reaches altitude 10° 22:06:00 10° 340° (NNW) 2,515 7.6 -27.5°
Enters shadow 22:11:45 68° 61° (ENE) 926 4.3 -28.0°
